Weather in Kutna Hora

Czech Republic     49°57′03″N   15°16′25″E
temp.,
°C
wind,
m/s
gust,
m/s
humid.,
%
clouds,
%
prec.,
mm/h
press.,
hPa
HPBL,
m
14 may, fri
fri1423:00+9wnw61196100 2.4 1004680
02:00+9wnw71195100 4.2 1004645
05:00+9w61195100 2.8 1004608
08:00+9wnw51096100 5.6 1006538
11:00+10wnw4891100 1.1 1007644
14:00+11wnw248898 1.4 1008468
17:00+13nnw3475100 0.3 1007851
20:00+11wsw11835 0.3 100810
15 may, sat
sat1523:00+8s22915 0.0 100917
02:00+7ssw22935 0.0 101025
05:00+6ssw229199 0.0 101015
08:00+11sw2482100 0.0 1011270
11:00+14w3468100 0.0 10101007
14:00+14sw1265100 0.3 1009980
17:00+15sse3465100 0.4 10071152
20:00+12sse228095 0.8 100616
16 may, sun
sun1623:00+9ssw2288100 0.0 100614
02:00+9wnw3996100 0.8 1008456
05:00+7sw2393100 0.1 100870
08:00+10wsw578699 0.1 1009568
11:00+13w566775 0.2 10081365
14:00+14wsw346587 0.9 10061195
17:00+15wsw3561100 0.2 10051207
20:00+11wsw3687100 1.0 1006147
17 may, mon
mon1723:00+9sw4109161 0.2 1007228
02:00+8sw399191 0.3 1007228
05:00+9ssw389377 0.0 1007205
08:00+11wsw51087100 0.7 1008683
11:00+13w797679 1.1 10071349
14:00+13wsw697610 2.4 10081016
17:00+14w710676 0.4 10081635
20:00+11wsw48825 1.0 1009210
18 may, tue
tue1823:00+7sw410915 0.0 1010223
02:00+6ssw37945 0.0 1010130
05:00+6sw4118971 0.0 1011317
08:00+9wsw598496 0.0 1012679
11:00+11wsw587997 0.1 1012885
14:00+12w787997 0.9 10131049
17:00+12w6980100 0.3 1013999
20:00+10w6118865 1.4 1014542